Location: Newark
(9.1167°S, 159.8667°E)
Time: 14:42:27
(UTC+00:00)

Envisat - Visible Passes

Search period start: 22 September 2019 00:00
Search period end: 02 October 2019 00:00
Orbit: 764 x 766 km, 98.1° (Epoch: 22 September)

Date Brightness Start Highest point End Pass type
(mag) Time Alt. Az. Time Alt. Az. Time Alt. Az.
22 Sep 2.9 07:54:20 10° SSE 07:59:24 71° ENE 08:04:27 10° N visible
23 Sep 5.6 08:57:48 10° SSW 09:01:25 20° WSW 09:05:02 10° WNW visible
24 Sep 3.7 08:19:52 10° S 08:24:50 55° WSW 08:29:47 10° NNW visible
25 Sep 3.1 07:43:13 10° SSE 07:48:10 52° E 07:53:04 10° N visible
25 Sep 6.5 18:43:42 10° E 18:45:25 12° ESE 18:47:09 10° SE visible
26 Sep 5.1 08:46:00 10° SSW 08:50:14 27° WSW 08:54:26 10° NW visible
27 Sep 3.2 08:08:31 10° S 08:13:37 76° WSW 08:18:40 10° NNW visible
28 Sep 3.5 07:32:13 10° SSE 07:36:55 38° E 07:41:35 10° NNE visible
28 Sep 6.1 09:13:21 10° SW 09:15:34 13° WSW 09:17:47 10° W visible
29 Sep 4.6 08:34:23 10° S 08:39:01 36° WSW 08:43:38 10° NW visible
30 Sep 2.9 07:57:17 10° SSE 08:02:23 80° ENE 08:07:27 10° N visible
01 Oct 5.7 09:01:04 10° SW 09:04:23 18° WSW 09:07:42 10° WNW visible
